Location: Stilling
(56.0622°N, 9.9882°E)
Time: 23:13:44
(UTC+00:00)

Cosmos 1340 - Pass Details

Date: 13 July 2020
Orbit: 502 x 505 km, 81.2° (Epoch: 03 August)

Event Time Altitude Azimuth Distance (km) Brightness Sun altitude
Exits shadow 21:03:11 - 138° (SE) 1,846 4.8 -6.6°
Reaches altitude 10° 21:03:37 10° 133° (SE) 1,715 4.7 -6.7°
Maximum altitude 21:06:16 19° 88° (E) 1,275 4.4 -6.9°
Drops below altitude 10° 21:08:56 10° 44° (NE) 1,727 5.6 -7.0°
Sets 21:11:31 0° 26° (NNE) 2,618 6.8 -7.2°
